www.pogodaiklimat.ru

Погода и климат >> Архив погоды >> Украина >> Нижний Студеный


ПОГОДА в Нижнем Студеном

  • Прогноз погоды в Нижнем Студеном
  • Монитор погоды в Нижнем Студеном

АРХИВ ПОГОДЫ в Нижнем Студеном

Время (UTC), дата Ветер
(напр.,м/с)
 
Видим.   Явления Облачность Т
(С)
Тd
(С)
f
(%)
Тe
(С)
Тes
(С)
Комфортность P
(гПа)
Po
(гПа)
Тmin
(С)
Tmax
(С)
R
(мм)
R24
(мм)
S
(см)
00 10.09 Ю 2 20 км в посл. час ливневой дождь 10/10 600 м
[Cb cap]
+12.6 +10.5 87 +12 +12 1017.6 982.9
03 10.09 штиль 0 20 км 10/10 600 м
[Sc]
+11.2 +10.3 94 +10 +10 1019.5 984.6
06 10.09 Ю 2 20 км 6/3 600 м
[Sc Ci fib]
+13.8 +10.7 82 +13 +15 1019.3 984.7 +10.5 0.8
09 10.09 ЮВ 4 20 км 4/1 600 м
[Sc Ac trans Ci fib]
+17.1 +9.9 63 +17 +21 1019.4 985.2
12 10.09 Ю 4 20 км 6/3 600 м
[Cu med, cong Ac trans]
+19.6 +10.6 56 +21 +24 комфорт 1019.3 985.4
15 10.09 ЮЗ 2 20 км 3/0
[Ac trans]
+19.9 +11.0 56 +22 +23 комфорт 1019.3 985.4
18 10.09 С 2 20 км 3/0
[Ac trans]
+11.8 +10.4 91 +11 +11 1022.3 987.4 +20.9
21 10.09 С 2 20 км 4/0
[Ac trans]
+9.4 +8.1 92 +8 +8 1023.4 988.1
00 11.09 штиль 0 20 км 3/0
[Ac trans]
+7.6 +6.2 91 +7 +7 1025.0 989.4
03 11.09 штиль 0 20 км 3/0
[Ac trans]
+6.2 +5.5 95 +5 +5 1025.5 989.8
06 11.09 С 2 20 км 3/0
[Ac trans]
+9.4 +8.0 91 +8 +9 1025.3 990.0 +5.4
12 11.09 Ю 2 20 км 4/4 600 м
[Cu med, cong]
+24.5 +12.7 48 +26 +32 жарко 1021.4 988.0
15 11.09 З 2 20 км 8/6 600 м
[Cu med, cong Ac trans]
+24.8 +10.6 41 +26 +26 жарко 1020.9 987.5
18 11.09 С 2 20 км 3/0
[Ci fib]
+16.2 +13.5 84 +16 +16 1023.7 989.2 +25.7
21 11.09 штиль 0 20 км 4/0
[Ci fib]
+11.8 +10.4 91 +11 +11 1025.8 990.7
00 12.09 С 2 20 км 3/0
[Ci fib]
+9.3 +8.2 93 +7 +7 1026.6 991.2
03 12.09 штиль 0 20 км 6/0
[Ac trans Ci fib]
+8.8 +8.0 95 +8 +8 1027.4 991.9
06 12.09 штиль 0 200 м туман ?/? +10.2 +10.0 99 +9 +9 1028.2 992.9 +8.0
09 12.09 ЮВ 2 20 км {туман} 4/0
[Ci fib]
+19.9 +14.6 72 +23 +31 комфорт 1026.1 992.0
12 12.09 ЮЗ 2 20 км {туман} 4/4 600 м
[Cu med, cong]
+24.3 +13.7 52 +27 +32 жарко 1025.1 991.5
15 12.09 З 2 20 км 3/3 600 м
[Cu med, cong]
+23.7 +12.1 48 +25 +26 комфорт 1024.3 990.7
18 12.09 С 2 20 км 3/0
[Ac trans]
+16.1 +12.6 80 +16 +16 1027.5 992.9 +24.9
21 12.09 штиль 0 20 км ясно +11.8 +10.4 91 +11 +11 1028.7 993.5
00 13.09 штиль 0 20 км ясно +9.8 +8.8 93 +9 +9 1030.4 994.9
03 13.09 штиль 0 20 км ясно +8.4 +7.8 96 +7 +7 1030.8 995.1
06 13.09 штиль 0 20 км 4/0
[Ac trans Ci fib]
+10.9 +9.7 92 +10 +12 1030.1 994.8 +7.3
09 13.09 Ю 2 20 км 3/3 600 м
[Cu med, cong]
+21.0 +13.3 61 +24 +30 комфорт 1027.0 993.0
12 13.09 Ю 4 20 км 8/4 600 м
[Cu med, cong Ci fib]
+21.7 +10.2 48 +23 +26 комфорт 1025.2 991.3
15 13.09 Ю 2 20 км 6/4 600 м
[Cu med, cong Ci fib]
+22.4 +12.0 52 +25 +26 комфорт 1024.5 990.7
18 13.09 СВ 2 20 км 4/1 600 м
[Sc Ac trans]
+13.8 +11.8 88 +13 +13 1026.9 992.0 +24.0
21 13.09 штиль 0 20 км 9/5 600 м
[Sc Ac trans]
+10.3 +9.0 92 +10 +10 1029.1 993.7
00 14.09 штиль 0 20 км 10/10 600 м
[Sc]
+12.0 +11.1 94 +11 +11 1028.6 993.5
03 14.09 СВ 1 20 км 9/9 600 м
[Sc]
+11.3 +10.5 95 +11 +11 1028.6 993.4
06 14.09 штиль 0 20 км 9/9 600 м
[Sc]
+14.0 +12.2 89 +14 +14 1028.1 993.2 +9.8
09 14.09 С 6 20 км 8/8 600 м
[Sc]
+14.1 +10.3 78 +12 +13 1029.3 994.4
12 14.09 штиль 0 20 км 3/3 600 м
[Sc Ac trans]
+16.6 +9.0 61 +17 +25 1028.4 993.8
18 14.09 С 2 20 км 3/0
[Ci fib]
+8.8 +5.5 80 +7 +7 1030.1 994.5 +18.4
00 15.09 штиль 0 20 км ясно +2.9 +1.6 91 +2 +2 1031.8 995.4
06 15.09 штиль 0 20 км 3/0
[Ci fib]
+3.6 +2.1 90 +2 +5 1031.1 994.8 +0.1
12 15.09 ЮВ 4 20 км 1/0
[Ci fib]
+17.7 +4.5 42 +17 +23 1024.3 990.0
18 15.09 20 км 1/0
[Ci fib]
+9.2 +5.6 78 1024.1 988.8 +19.2
00 16.09 штиль 0 20 км ясно +3.8 +2.8 93 +3 +3 1024.0 988.0
06 16.09 штиль 0 20 км 9/0
[Ci]
+6.3 +4.2 86 +5 +7 1021.7 986.1 +1.5
18 16.09 СВ 1 20 км 9/5 600 м
[Sc Ac trans]
+14.2 +11.5 84 +15 +15 1014.9 980.5 +21.0

 

Местоположение метеостанции Нижний Студеный (Закарпатская область, Украина): широта 48.70 долгота 23.37 высота над уровнем моря 290 м.

В архиве по умолчанию представлена погода в Нижнем Студеном за последнюю неделю. Архивные данные за месяц целиком и за предыдущие месяцы, начиная с января 2011 года, Вы можете получить, выбрав интересующий диапазон дат из раскрывающегося списка и нажав кнопку "Ввод!".


*Определитесь, кто Вы:
робот инопланетянин человек

Внимание! Время в таблицах - всемирное. Для получения местного времени необходимо прибавить поправку, которая равна 2 ч.

Смотрите также архив погоды в соседних городах и на ближайших метеорологических станциях:

Погода в Плае (Черновицкая область, Украина) (15 км)
Погода в Турке (Львовская область, Украина) (53 км)
Погода в Славском (Львовская область, Украина) (53 км)
Погода в Долине (Ивано-Франковская область, Украина) (55 км)
Погода в Хусте (Закарпатская область, Украина) (58 км)
Погода в Перечине (Закарпатская область, Украина) (66 км)
Погода в Стрые (Львовская область, Украина) (69 км)
Погода в Великом Березном (Закарпатская область, Украина) (70 км)
Погода в Дрогобыче (Львовская область, Украина) (73 км)
Погода в Берегове (Закарпатская область, Украина) (79 км)

Пояснения к столбцам:

Ветер - указаны скорость ветра в м/с - средняя за 10 мин, порывы в срок и между сроками (в фигурных скобках) и направление, откуда дует ветер: С - северный, СВ - северо-восточный, В - восточный, ЮВ - юго-восточный, Ю - южный, ЮЗ - юго-западный, З - западный, СЗ - северо-западный.
Видимость - горизонтальная дальность видимости в метрах или километрах. При видимости от 1 до 10 км при отсутствии осадков обычно наблюдается дымка, при ухудшении видимости до 1 км и менее - туман. В сухую погоду видимость может ухудшаться дымом, пылью или мглою.
Явления - указаны атмосферные явления, наблюдавшиеся в срок или в последний час перед сроком; фигурными скобками обозначены явления, наблюдавшиеся между сроками (за 1-3 часа до срока); квадратными скобками обозначены град или гололедные отложения с указанием их диаметра в мм.
Облачность - указаны через наклонную черту общая и нижняя облачность в баллах и высота нижней границы облаков в метрах; квадратными скобками обозначены формы облаков: Ci - перистые, Cs - перисто-слоистые, Cc - перисто-кучевые, Ac - высококучевые, As - высокослоистые, Sc - слоисто-кучевые, Ns - слоисто-дождевые, Cu - кучевые, Cb - кучево-дождевые. Подробнее классификацию облаков см. в Атласе облаков (PDF).
T - Температура воздуха - температура, измеренная на высоте 2 м над землей.
Td - Температура точки росы - температура, при понижении до которой содержащийся в воздухе водяной пар достигнет насыщения.
f - Относительная влажность воздуха - влажноcть воздуха, измеренная на высоте 2 м над землей.
Te - Эффективная температура - температура, которую ощущает одетый по сезону человек в тени. Характеристика душности погоды. При расчете учитывается влияние влажности воздуха и скорости ветра на теплоощущения человека.
Tes - Эффективная температура на солнце - температура, которую ощущает человек, с поправкой на солнечный нагрев. Характеристика знойности погоды. Зависит от высоты солнца над горизонтом, облачности и скорости ветра. Ночью, в пасмурную погоду, а также при ветре 12 м/с и более поправка равна нулю.
P - Атмосферное давление - приведенное к уровню моря атмосферное давление.
Po - Атмосферное давление - измеренное на уровне метеостанции атмосферное давление.
Tmin - Минимальная температура - минимум температуры воздуха на высоте 2 м над землей.
Tmax - Максимальная температура - максимум температуры воздуха на высоте 2 м над землей.
R - Количество осадков - Количество выпавших осадков за период времени, мм. При наведении курсора мыши на число - период времени, за который выпало указанное количество осадков.
R24 - Количество осадков - Количество выпавших осадков за 24 часа, мм.
S - Снежный покров - Высота снежного покрова, см. При наведении курсора мыши на число - состояние снежного покрова и степень покрытия местности в баллах.